Vorticity
8 9 9 10 11 11 11 10 10 10 9 8 9 8 8 9 8 8 9 10 10 10 10 10 10 10 10 9 9 10 10 11 10 10 9 9 8 8 9 9 9 9 9 9 8 7 6 7 8 8 7 6 7 7 6 7 7 7 8 6 7 11 4 -1 2 4 5 2 3 6 8 8 5 7 9 10 9 9 11 10 9 10 4 2 6 8 10 9
8 9 10 10 10 11 11 10 10 10 10 9 9 9 8 8 8 7 8 9 9 8 8 8 9 9 9 10 10 10 10 11 10 11 10 10 10 9 9 9 10 10 9 8 6 7 7 7 7 8 7 7 8 7 7 7 6 7 6 6 10 8 -1 -2 2 5 8 4 4 7 6 7 9 8 10 11 9 9 9 9 12 7 3 8 10 11 12 7
8 9 10 10 9 10 10 10 10 10 10 9 9 9 9 8 8 7 7 7 8 8 8 8 8 8 9 9 10 10 10 10 10 11 11 10 10 11 10 10 11 9 8 7 6 6 6 7 7 7 7 7 8 7 8 8 8 8 5 8 7 1 3 7 5 5 5 3 7 7 7 10 8 7 11 9 7 15 14 10 12 6 4 10 9 10 7 0
8 9 10 10 10 10 10 10 11 10 10 9 10 10 10 10 9 8 8 7 8 7 7 8 8 8 8 9 9 9 10 10 10 10 10 11 11 11 11 11 10 8 7 5 5 5 6 8 7 8 8 7 8 8 8 8 9 8 8 8 3 2 8 8 6 7 7 7 8 7 9 8 5 10 12 9 14 24 25 20 13 7 7 11 14 15 7 3
7 9 9 10 11 11 10 11 11 11 11 10 10 10 10 10 10 10 9 9 9 8 8 8 8 8 8 9 9 9 9 9 11 12 11 11 12 11 11 10 9 8 6 4 5 6 7 7 8 8 8 8 9 8 8 8 7 7 9 6 4 7 6 5 7 8 7 7 7 7 9 6 7 13 9 11 11 -5 -5 7 8 8 12 9 12 19 11 5
7 7 9 10 11 11 11 11 12 12 12 11 11 10 10 11 11 11 11 11 11 10 10 9 9 9 8 9 9 9 9 8 10 12 12 10 10 10 9 9 8 7 5 5 5 6 8 8 8 8 8 9 8 8 8 8 8 8 8 7 7 7 5 7 9 7 8 8 8 8 9 8 10 11 7 11 10 -6 -7 4 1 2 10 5 3 14 10 4
9 7 8 10 11 11 12 11 12 12 12 12 11 11 11 11 11 11 11 12 12 11 11 10 9 9 9 9 9 9 8 7 6 7 8 8 8 7 7 7 7 7 6 5 5 6 8 8 8 9 9 9 8 9 9 8 9 7 7 8 7 7 7 9 8 8 9 7 8 8 9 10 9 9 8 10 12 10 8 11 8 4 8 7 4 5 0 0
10 8 7 8 10 11 11 11 11 12 12 12 12 12 12 11 11 10 10 10 10 10 10 10 10 9 9 9 9 8 9 10 8 7 6 7 8 8 8 8 7 6 5 5 6 7 8 8 9 8 8 8 7 7 8 8 7 6 7 7 7 8 9 9 9 8 8 8 8 9 9 8 8 8 9 13 12 8 8 10 12 13 13 11 10 6 4 3
10 9 8 8 9 10 10 10 10 10 10 11 11 13 13 12 11 10 10 10 9 10 9 10 10 9 9 9 9 9 10 11 10 9 9 9 9 10 10 10 8 7 6 6 7 7 8 8 8 7 7 7 6 4 5 6 5 7 8 8 9 10 9 10 10 8 9 9 9 9 9 8 8 7 9 10 6 7 13 14 13 17 16 10 8 8 7 3
10 8 9 9 8 9 9 9 9 9 8 9 9 10 11 12 12 11 11 10 9 9 9 9 9 9 9 9 9 9 10 9 9 10 10 10 9 9 9 9 9 8 8 8 9 8 8 8 8 8 6 5 5 4 5 6 7 8 8 9 10 9 10 9 9 9 9 9 9 8 7 7 6 8 13 10 6 9 13 15 18 16 9 5 4 5 8 9
9 8 9 9 9 9 9 8 7 8 8 7 7 7 8 9 10 11 12 10 9 8 8 9 9 8 8 8 7 8 9 8 8 9 8 9 9 9 8 8 9 9 10 9 9 9 9 8 7 7 5 5 4 3 6 7 7 8 8 9 8 8 8 8 9 9 8 9 9 7 7 8 7 11 15 8 5 12 13 9 13 15 10 5 3 6 12 12
8 8 9 9 10 9 8 7 7 7 7 6 5 5 6 7 8 9 11 12 11 9 8 8 8 8 6 7 7 6 7 7 8 8 7 8 8 9 8 9 10 9 10 9 9 9 8 7 7 5 3 3 2 3 5 6 7 8 7 8 8 9 8 9 9 8 10 10 8 10 10 8 8 9 12 8 2 9 12 1 -0 9 10 7 9 12 10 6
8 8 9 9 8 8 8 7 6 6 6 5 4 5 5 5 6 6 8 11 12 11 10 9 9 8 7 7 7 6 6 7 7 7 7 7 7 8 8 9 9 9 9 9 8 8 7 6 5 4 2 2 2 4 6 6 7 5 6 8 7 10 12 10 7 10 13 9 7 11 9 11 16 15 12 7 5 8 10 6 1 1 8 11 12 13 8 4
8 7 8 8 8 8 7 6 6 5 5 5 5 5 5 5 5 5 6 7 10 11 12 12 11 10 9 8 8 8 7 7 6 7 7 7 7 7 8 8 9 9 9 8 8 7 7 6 4 3 2 0 1 4 5 4 4 3 6 8 6 12 17 10 7 12 12 7 9 9 9 15 19 24 22 5 5 11 9 12 9 3 8 8 8 10 8 6
8 7 7 8 8 8 7 6 4 5 5 6 6 6 6 6 6 6 6 5 7 9 10 12 12 12 12 10 9 9 8 8 9 9 8 7 7 6 7 8 10 10 9 9 8 7 7 6 5 4 2 2 4 5 4 4 4 4 6 7 9 13 11 6 7 10 7 5 9 9 13 14 4 9 11 -5 2 13 8 14 15 8 6 6 12 5 3 12
7 7 7 7 8 8 7 6 4 4 5 5 6 6 7 7 7 8 7 6 5 6 8 10 12 11 11 12 11 10 9 9 10 9 9 9 8 8 8 9 9 9 9 9 8 8 8 7 6 5 5 7 7 5 5 6 5 5 5 7 17 21 14 14 14 8 4 6 8 6 8 13 8 7 2 -5 10 18 10 13 12 9 6 7 8 -6 3 17
7 6 7 7 7 7 7 6 4 4 4 5 6 6 7 7 8 9 9 8 6 5 6 6 8 10 11 10 9 10 11 9 9 9 9 9 9 9 9 8 9 9 9 9 8 8 7 6 6 6 5 5 5 5 7 8 11 16 12 2 1 3 3 7 11 8 5 7 9 8 7 9 3 -2 -5 -7 6 18 15 11 6 7 7 5 4 1 13 10
7 6 7 7 7 7 7 6 4 4 4 4 5 5 6 7 8 9 10 11 10 8 5 3 4 5 6 7 7 8 9 8 8 8 8 8 8 8 7 7 7 6 6 5 4 3 3 3 3 3 3 5 8 8 8 11 14 19 23 22 12 5 5 6 5 4 6 11 10 8 11 11 1 -6 -1 -3 0 12 14 10 5 5 2 5 14 8 8 7
8 7 6 6 7 7 7 6 5 5 4 4 4 5 6 7 9 10 11 13 13 11 8 6 6 3 0 3 5 5 6 7 5 5 5 5 5 5 4 4 3 2 2 2 2 3 3 4 3 5 7 10 12 9 12 15 -0 -13 -7 8 13 12 13 13 8 2 5 12 9 5 8 12 9 5 8 7 6 10 11 9 7 8 2 1 12 7 6 12
7 7 7 6 6 6 6 6 5 4 4 4 4 4 6 7 9 10 12 14 14 14 12 8 7 6 3 2 2 2 3 4 4 3 3 3 3 3 3 4 5 7 8 7 7 9 9 10 10 12 13 12 11 8 11 3 -11 -9 -6 -6 -0 2 -1 -2 4 6 5 7 5 6 9 9 8 7 8 8 7 7 10 11 6 9 8 -1 2 6 11 11
8 8 7 6 6 7 7 6 6 5 4 4 4 4 5 7 9 10 11 13 14 16 16 12 10 10 9 5 3 3 2 4 5 4 6 6 6 8 9 10 11 14 14 11 13 16 15 14 14 15 13 9 7 9 8 -2 -2 16 15 2 2 8 7 -0 2 9 9 10 10 8 10 10 8 9 9 7 5 1 4 12 11 11 12 6 5 3 4 7
9 8 7 7 6 7 7 6 6 5 5 5 4 4 5 8 10 10 10 11 12 14 15 16 15 14 12 11 10 8 9 12 12 13 14 13 12 13 13 14 14 13 12 12 15 16 13 12 15 13 9 8 10 11 10 8 10 12 7 6 8 8 11 4 1 10 9 7 7 4 8 9 6 12 15 11 9 -1 -4 8 10 11 14 12 12 8 3 6
8 8 7 7 6 7 6 6 6 5 5 5 3 4 6 8 10 11 12 11 11 12 13 14 15 15 15 14 13 12 14 15 15 17 16 14 13 12 13 13 13 9 8 10 11 11 11 11 11 8 7 12 14 12 10 10 10 9 8 11 12 8 9 7 4 9 11 10 9 6 9 10 8 15 17 12 12 6 2 10 11 10 13 11 11 15 10 7
9 8 7 7 7 7 6 5 5 4 4 4 4 4 6 9 10 11 13 12 11 11 11 13 12 12 13 13 13 12 11 10 9 12 10 11 11 9 10 9 9 7 7 8 7 8 8 6 6 7 10 13 10 9 13 13 10 12 10 5 9 8 2 7 11 5 1 5 11 10 8 9 11 16 19 19 19 13 5 8 11 9 11 11 10 13 10 7
9 8 7 8 7 6 5 4 4 3 4 4 4 4 6 9 10 11 13 12 12 11 10 11 11 11 10 10 10 9 10 10 8 9 8 8 7 7 7 5 6 6 7 8 6 8 8 4 8 11 9 9 9 10 10 12 11 11 10 8 16 12 -15 -19 0 4 -3 2 13 15 13 14 15 17 22 25 23 24 23 15 12 12 13 10 8 10 8 7
8 6 6 7 5 5 5 4 5 4 5 5 4 6 7 10 10 11 13 12 13 13 11 10 9 9 10 9 9 9 9 9 7 7 8 9 6 6 6 5 6 5 5 7 4 6 5 1 9 12 7 7 9 9 9 11 12 11 13 9 7 13 -0 -14 -1 5 1 7 10 10 17 20 16 13 13 14 13 20 30 24 14 11 11 8 5 7 7 7
8 5 5 5 4 6 6 6 7 5 6 6 5 7 8 10 11 11 14 12 11 11 11 12 9 8 10 10 9 8 8 11 12 10 9 10 8 7 8 7 8 6 4 6 5 8 4 -2 7 9 6 8 6 7 9 9 12 14 19 16 5 10 13 5 8 8 4 9 1 -2 9 10 8 6 1 8 15 12 14 17 15 8 5 9 9 5 9 10
6 5 4 4 4 7 7 7 7 6 7 6 6 9 9 11 11 11 14 10 5 6 8 13 12 9 10 10 11 9 6 8 12 13 11 10 8 9 9 7 9 8 5 7 8 12 9 1 5 6 4 6 5 6 5 7 17 11 -1 8 16 13 8 7 11 10 9 11 5 7 14 10 11 13 2 2 6 1 -1 5 16 18 10 12 13 8 11 10
6 6 6 7 7 8 8 7 7 7 8 7 8 10 9 11 11 12 13 7 5 9 9 10 12 12 10 8 11 11 10 7 6 11 15 13 10 10 9 7 9 8 5 6 4 5 8 9 10 10 9 9 7 7 6 10 19 6 -11 6 24 18 10 10 12 14 12 9 9 16 16 9 12 18 15 10 5 5 7 1 3 10 9 13 23 24 18 8
8 8 8 9 8 9 9 9 9 9 9 8 9 10 10 12 12 12 11 5 6 10 10 11 12 12 11 9 9 10 11 11 7 7 9 11 11 9 9 8 8 9 7 8 7 -1 -0 8 11 11 12 11 10 9 7 10 12 5 3 16 21 13 10 10 12 16 11 3 9 19 16 8 7 11 15 14 8 9 17 12 3 5 11 15 19 21 14 6
10 11 11 11 11 11 10 9 10 9 9 9 9 11 12 12 12 11 8 6 9 9 7 9 11 12 12 9 9 10 9 11 11 9 7 7 9 7 8 8 7 7 6 8 12 7 3 7 8 8 11 11 12 11 8 10 12 12 14 17 15 15 16 14 13 14 5 2 10 15 15 12 8 9 11 13 11 5 8 10 4 7 18 18 10 8 8 7
15 15 14 13 11 10 9 9 10 9 9 10 10 12 12 10 11 10 9 10 12 10 8 8 9 12 14 11 10 9 8 10 11 11 11 10 10 9 7 9 9 8 6 9 13 12 10 12 11 8 9 10 12 14 13 13 12 11 13 15 13 11 12 13 14 11 8 11 11 6 8 10 9 10 7 6 11 11 10 9 6 10 18 17 12 7 7 7
14 12 11 10 9 9 9 9 10 10 10 10 10 11 10 9 10 9 10 9 5 6 9 9 9 10 12 15 17 13 9 10 11 11 13 12 11 12 10 7 9 8 7 10 12 12 10 10 12 12 11 12 13 12 13 16 15 12 11 15 16 10 6 8 13 11 8 14 17 9 7 7 8 13 10 4 6 8 8 8 14 24 22 16 12 5 7 10
8 8 8 9 10 9 10 10 10 10 10 10 10 9 9 10 10 8 10 9 5 6 9 9 10 12 12 8 11 16 11 8 12 9 9 13 11 12 13 10 9 10 7 4 5 11 13 10 11 14 14 15 17 15 8 9 14 15 11 11 14 10 2 3 11 15 12 13 18 16 14 11 8 7 4 6 14 15 13 14 17 21 16 9 6 5 11 14
7 9 9 10 10 10 11 10 10 10 9 10 8 9 10 10 10 7 8 10 8 9 9 8 8 11 15 8 1 11 13 7 12 11 6 9 9 8 11 11 11 12 12 7 2 0 5 10 11 11 10 11 17 18 10 7 13 16 13 10 8 6 5 3 2 5 8 7 5 7 12 14 13 11 5 7 16 19 21 23 18 10 7 7 4 6 14 17
8 10 10 11 10 10 10 9 10 9 9 9 8 9 9 6 6 5 5 9 11 11 9 11 14 10 14 21 14 10 11 6 9 15 12 10 11 12 12 11 9 8 8 10 10 4 1 3 8 6 3 5 12 14 13 10 8 9 14 15 9 4 4 6 5 3 3 1 -4 -1 6 7 6 8 10 10 12 16 18 18 16 11 7 8 6 8 18 17
9 10 10 11 10 10 10 9 9 9 8 8 7 7 8 6 8 7 7 10 9 11 10 10 20 16 5 16 24 17 14 9 4 10 15 16 17 16 16 16 14 11 9 7 8 13 7 2 7 9 5 6 7 7 13 13 5 2 8 14 14 11 5 1 4 6 6 6 2 2 4 5 3 3 7 6 4 15 21 12 11 13 9 8 7 8 17 15
9 10 9 10 10 9 9 8 8 7 7 8 7 7 9 9 11 11 10 11 8 12 14 1 3 10 -2 -1 15 19 18 15 7 5 11 14 13 9 8 12 14 14 14 8 5 10 10 3 6 9 9 13 12 8 9 12 10 6 6 6 4 9 14 10 5 5 5 7 11 14 12 9 8 6 10 12 9 19 27 15 8 11 9 9 7 5 11 15
9 10 8 9 9 8 8 7 7 7 7 9 9 9 10 9 13 13 12 14 11 12 15 2 -2 10 7 -2 5 14 19 17 9 5 6 8 9 7 5 4 7 12 13 11 9 9 8 4 6 7 9 13 17 16 9 8 13 9 6 7 -1 -3 7 11 11 8 2 2 3 6 9 8 9 8 11 16 15 17 24 21 13 9 8 8 7 8 11 14
9 9 8 9 8 8 9 7 8 9 9 10 10 10 12 11 13 15 12 13 12 8 10 8 7 12 9 1 1 8 16 16 9 4 4 6 8 10 9 7 8 10 13 16 12 10 10 6 5 8 7 3 7 17 15 12 19 17 11 10 4 -1 1 4 9 9 7 12 10 5 8 11 12 9 6 9 11 11 18 23 17 10 9 9 8 11 12 11
9 9 9 10 9 8 10 9 10 11 10 10 10 10 12 12 13 14 12 12 11 9 10 10 10 10 8 7 5 5 10 13 10 6 5 7 9 10 7 5 8 8 10 15 12 11 13 8 5 10 14 12 11 16 16 9 11 16 17 16 10 4 3 4 8 10 11 10 2 3 9 10 13 14 8 10 15 14 16 20 17 11 10 9 8 11 13 11
9 9 9 9 10 10 10 11 12 12 11 12 12 11 9 8 11 13 12 12 11 10 11 11 9 9 8 9 9 7 9 13 11 6 3 -0 3 14 12 3 7 10 7 10 11 12 12 8 8 7 4 9 10 8 10 7 3 5 9 15 18 12 7 4 3 8 16 7 -6 1 5 -5 -2 7 5 7 13 13 13 16 16 12 6 6 8 9 17 24
10 12 11 9 10 11 11 11 11 10 11 13 14 16 16 13 13 14 14 14 14 13 13 11 11 11 11 9 9 9 10 14 13 6 3 -3 -6 11 24 15 10 10 4 3 6 9 8 6 10 7 -3 1 5 4 11 14 9 8 5 4 10 14 11 8 4 2 7 12 8 11 17 10 5 8 9 9 10 11 12 15 17 14 9 7 8 6 10 21
10 10 13 12 10 11 10 9 11 11 9 11 12 13 17 16 13 14 15 13 13 15 16 15 11 12 14 12 12 13 11 14 16 9 7 5 -7 -6 9 14 9 8 5 2 3 8 8 5 7 9 6 4 1 0 8 11 7 9 12 8 5 7 4 2 6 2 2 14 10 -8 -3 11 11 12 19 18 13 9 9 11 14 15 13 10 10 9 6 9
10 7 10 11 10 11 9 3 7 15 13 11 12 11 14 16 14 14 14 15 14 12 15 18 15 11 12 12 11 14 13 12 14 14 11 12 6 0 5 11 11 10 9 4 2 7 14 13 10 10 8 6 7 10 9 8 5 1 4 9 6 6 5 1 3 5 5 14 12 -5 -7 4 6 8 13 13 12 12 10 11 12 12 13 13 11 12 11 9
11 9 10 11 8 10 11 4 2 10 14 11 10 11 13 14 15 14 11 12 13 10 8 11 16 14 11 12 11 11 15 11 5 8 10 11 14 12 8 9 12 13 11 7 2 1 6 11 11 13 12 5 6 12 6 2 9 8 5 11 13 9 9 8 6 7 6 4 5 7 6 3 6 8 6 8 13 16 14 13 13 13 14 15 14 13 13 12
9 9 10 13 11 9 12 11 7 7 12 13 10 11 11 10 12 12 9 10 11 11 8 5 10 13 8 9 11 8 13 15 6 4 6 7 14 17 14 12 13 12 10 9 9 3 0 1 -0 6 14 11 5 4 3 4 10 15 15 13 15 15 9 9 11 10 9 5 1 1 -1 0 11 15 11 11 12 10 9 8 8 10 12 14 18 18 16 15
8 9 8 9 11 11 11 15 15 10 11 13 10 10 11 10 11 10 10 11 10 10 12 8 9 13 10 9 11 8 12 18 15 10 6 3 6 9 14 18 19 17 13 11 11 9 6 4 2 -1 -2 7 14 7 2 6 4 6 12 5 4 13 9 7 12 8 3 5 5 1 -2 2 11 14 11 10 8 8 8 6 6 8 9 11 15 19 19 17
6 10 13 9 7 10 12 14 13 10 10 11 9 9 10 9 11 10 8 11 11 9 11 10 9 11 11 10 10 8 8 11 13 13 8 6 5 2 2 9 17 20 19 16 14 13 11 7 10 9 -7 -8 16 18 5 9 12 8 8 -1 -7 4 9 8 12 10 5 5 5 5 6 3 -1 1 6 4 3 8 10 9 10 8 6 7 10 15 18 17
3 6 14 13 8 10 12 11 9 8 10 10 9 10 10 8 10 10 8 9 11 10 10 9 10 10 8 9 8 7 7 8 13 17 12 9 12 11 4 2 8 11 11 14 15 14 15 8 7 19 8 -9 10 25 10 8 19 20 17 12 4 5 9 10 8 7 8 8 5 8 12 9 1 1 6 4 2 7 10 10 11 10 7 6 7 10 12 12
7 7 9 9 11 13 11 8 7 8 10 10 9 9 9 9 9 9 10 10 9 12 13 10 12 12 11 12 9 7 7 4 4 11 13 8 8 11 7 3 8 12 9 12 15 11 12 10 9 22 19 -6 -1 23 19 5 6 11 13 20 24 17 8 7 9 7 6 7 7 6 4 5 6 5 6 7 8 9 9 10 11 11 10 8 5 6 8 9
10 11 8 6 10 11 9 9 8 8 11 9 8 9 8 8 9 7 9 11 11 12 13 12 13 12 13 15 13 9 9 7 4 7 10 11 11 11 12 11 12 14 11 12 17 15 10 7 10 21 22 4 -2 16 26 15 6 6 4 8 22 27 14 4 7 9 7 5 7 7 4 3 5 4 3 5 8 8 6 8 10 9 10 10 8 7 7 6
Height
5740 5741 5742 5743 5744 5745 5747 5748 5749 5751 5753 5754 5756 5757 5759 5760 5762 5763 5765 5766 5768 5769 5770 5771 5772 5773 5775 5776 5777 5779 5780 5782 5783 5784 5786 5787 5789 5790 5791 5793 5794 5795 5796 5798 5799 5800 5801 5802 5803 5804 5805 5806 5807 5808 5809 5810 5810 5812 5812 5814 5814 5816 5816 5815 5814 5815 5816 5813 5812 5816 5817 5817 5816 5816 5817 5817 5817 5817 5819 5818 5818 5818 5817 5818 5819 5819 5819 5820
5735 5737 5738 5739 5740 5741 5742 5744 5745 5747 5748 5750 5752 5753 5755 5756 5758 5759 5761 5762 5764 5765 5766 5767 5768 5770 5771 5772 5774 5776 5777 5779 5780 5781 5783 5784 5785 5787 5788 5789 5791 5792 5793 5795 5796 5797 5798 5799 5800 5801 5802 5803 5804 5805 5806 5807 5807 5809 5810 5811 5812 5812 5811 5811 5811 5812 5813 5811 5811 5813 5813 5814 5814 5813 5814 5814 5813 5814 5816 5815 5815 5815 5814 5815 5815 5816 5817 5817
5731 5732 5734 5735 5736 5737 5738 5739 5741 5742 5744 5746 5748 5749 5751 5753 5754 5755 5757 5758 5760 5761 5762 5763 5764 5766 5767 5769 5770 5772 5774 5775 5777 5778 5780 5781 5782 5784 5785 5786 5788 5789 5791 5792 5793 5794 5795 5797 5798 5798 5800 5800 5801 5802 5803 5804 5805 5806 5807 5808 5808 5807 5808 5809 5809 5809 5809 5809 5809 5810 5810 5811 5810 5810 5812 5812 5811 5812 5812 5813 5813 5811 5812 5812 5812 5813 5814 5814
5727 5728 5730 5731 5732 5733 5734 5736 5737 5738 5740 5742 5744 5745 5747 5749 5750 5751 5753 5755 5756 5757 5759 5760 5761 5762 5764 5765 5767 5769 5771 5772 5773 5775 5776 5778 5779 5781 5782 5784 5785 5787 5788 5789 5790 5792 5793 5794 5795 5796 5797 5797 5798 5799 5800 5801 5802 5802 5804 5804 5803 5804 5805 5805 5806 5806 5806 5806 5806 5806 5807 5807 5806 5807 5809 5809 5810 5810 5809 5809 5810 5808 5809 5810 5809 5810 5811 5812
5723 5724 5726 5727 5728 5729 5731 5732 5733 5735 5736 5738 5740 5741 5743 5745 5746 5748 5749 5751 5752 5754 5755 5757 5758 5759 5760 5762 5764 5766 5767 5768 5770 5772 5773 5775 5776 5778 5779 5781 5782 5784 5785 5787 5788 5789 5790 5791 5792 5793 5794 5794 5796 5796 5797 5798 5799 5799 5801 5801 5800 5802 5802 5802 5803 5803 5803 5803 5803 5803 5804 5803 5803 5805 5805 5806 5808 5807 5805 5806 5808 5806 5806 5808 5807 5808 5810 5811
5718 5720 5722 5723 5724 5726 5727 5728 5730 5731 5733 5734 5736 5737 5739 5741 5742 5744 5746 5747 5749 5750 5752 5753 5755 5756 5757 5759 5760 5762 5763 5765 5768 5769 5770 5772 5773 5775 5777 5778 5780 5781 5783 5784 5785 5786 5787 5788 5789 5790 5791 5792 5793 5793 5794 5795 5796 5797 5797 5798 5798 5799 5799 5799 5800 5800 5800 5800 5799 5800 5800 5801 5801 5801 5801 5802 5803 5803 5802 5804 5806 5804 5804 5805 5806 5807 5808 5809
5714 5716 5718 5719 5721 5722 5723 5725 5726 5728 5729 5731 5732 5734 5735 5737 5739 5740 5742 5744 5745 5747 5748 5750 5751 5753 5754 5756 5757 5759 5760 5762 5765 5765 5767 5769 5770 5772 5774 5775 5777 5778 5780 5781 5782 5783 5785 5786 5787 5788 5789 5789 5790 5791 5792 5792 5793 5794 5794 5795 5795 5796 5796 5797 5797 5797 5797 5796 5796 5797 5797 5798 5798 5798 5798 5799 5801 5800 5799 5801 5803 5803 5802 5803 5804 5805 5805 5806
5709 5711 5713 5715 5717 5718 5720 5721 5723 5725 5726 5727 5729 5731 5732 5734 5735 5737 5739 5740 5742 5743 5745 5747 5748 5749 5751 5752 5754 5755 5757 5759 5761 5763 5764 5766 5767 5769 5771 5772 5774 5775 5777 5778 5779 5781 5782 5783 5784 5785 5786 5787 5788 5788 5789 5790 5790 5791 5791 5792 5792 5793 5793 5794 5794 5794 5794 5794 5794 5794 5794 5795 5795 5795 5795 5797 5798 5796 5796 5799 5800 5801 5801 5800 5801 5802 5802 5803
5705 5707 5709 5711 5713 5715 5716 5718 5720 5721 5723 5724 5726 5728 5729 5730 5732 5734 5736 5737 5738 5740 5742 5743 5745 5747 5748 5750 5751 5752 5754 5757 5758 5760 5762 5763 5765 5767 5768 5769 5771 5772 5774 5775 5777 5778 5779 5780 5781 5783 5783 5784 5785 5786 5787 5787 5787 5788 5789 5789 5790 5790 5790 5791 5791 5791 5791 5791 5791 5791 5791 5792 5792 5792 5793 5795 5794 5793 5795 5797 5797 5799 5799 5798 5798 5799 5800 5799
5700 5703 5705 5707 5709 5711 5713 5715 5716 5718 5720 5721 5723 5724 5726 5727 5728 5730 5732 5734 5735 5737 5738 5740 5742 5744 5745 5747 5748 5749 5752 5754 5755 5757 5759 5760 5762 5764 5765 5767 5768 5770 5771 5772 5774 5775 5776 5778 5779 5780 5781 5781 5782 5783 5784 5785 5785 5786 5786 5786 5787 5787 5788 5788 5788 5788 5788 5789 5789 5789 5789 5789 5789 5790 5792 5792 5790 5792 5794 5794 5796 5797 5796 5795 5796 5796 5796 5795
5696 5698 5701 5703 5705 5707 5709 5711 5713 5715 5716 5718 5720 5721 5722 5723 5725 5727 5729 5730 5732 5733 5735 5737 5739 5741 5743 5744 5745 5747 5749 5750 5752 5754 5756 5758 5759 5761 5763 5764 5765 5767 5768 5770 5771 5773 5774 5775 5777 5778 5778 5779 5780 5781 5782 5782 5783 5784 5783 5784 5784 5784 5785 5785 5785 5785 5786 5786 5786 5786 5786 5786 5786 5788 5790 5789 5787 5790 5792 5793 5794 5794 5794 5793 5793 5793 5794 5796
5692 5694 5697 5699 5701 5704 5706 5708 5710 5711 5713 5715 5717 5718 5719 5720 5722 5724 5725 5727 5728 5730 5732 5734 5736 5738 5740 5741 5742 5744 5746 5747 5749 5751 5753 5755 5757 5758 5760 5761 5763 5765 5766 5768 5769 5771 5772 5773 5774 5775 5776 5777 5778 5778 5779 5780 5781 5781 5781 5782 5782 5782 5783 5783 5783 5783 5784 5784 5783 5784 5784 5784 5785 5785 5789 5786 5784 5787 5789 5791 5792 5792 5792 5789 5789 5791 5793 5796
5687 5690 5692 5695 5697 5700 5702 5704 5706 5708 5710 5712 5713 5715 5716 5717 5718 5720 5722 5724 5725 5727 5729 5731 5733 5735 5736 5738 5740 5742 5743 5745 5747 5748 5750 5752 5754 5755 5757 5759 5761 5762 5764 5765 5766 5768 5769 5770 5771 5772 5774 5774 5775 5776 5777 5777 5778 5779 5779 5780 5779 5780 5780 5780 5781 5781 5782 5781 5781 5783 5782 5782 5783 5782 5785 5782 5780 5785 5787 5789 5790 5790 5789 5786 5787 5789 5791 5793
5683 5686 5688 5691 5693 5696 5699 5701 5703 5705 5706 5708 5710 5711 5712 5714 5715 5717 5719 5721 5722 5724 5726 5728 5730 5731 5733 5735 5737 5739 5740 5742 5744 5745 5747 5749 5751 5753 5754 5756 5758 5760 5761 5762 5764 5765 5766 5768 5769 5770 5771 5771 5772 5774 5774 5775 5776 5777 5777 5777 5778 5779 5778 5777 5779 5780 5779 5777 5779 5780 5780 5783 5783 5781 5781 5777 5777 5783 5785 5787 5788 5788 5786 5784 5785 5787 5789 5792
5679 5682 5684 5687 5690 5692 5695 5697 5700 5701 5703 5705 5706 5708 5709 5711 5712 5714 5716 5718 5720 5721 5723 5725 5727 5729 5730 5731 5734 5736 5737 5739 5741 5742 5744 5746 5748 5749 5752 5754 5755 5757 5758 5760 5761 5762 5764 5765 5766 5767 5768 5769 5770 5771 5772 5773 5774 5774 5775 5775 5776 5778 5777 5774 5776 5779 5775 5774 5778 5778 5778 5781 5783 5783 5778 5773 5776 5781 5782 5784 5786 5787 5784 5780 5783 5784 5787 5790
5674 5678 5681 5683 5686 5689 5692 5694 5696 5698 5700 5701 5703 5704 5706 5708 5709 5711 5713 5715 5717 5719 5720 5722 5724 5726 5727 5729 5731 5733 5734 5736 5738 5739 5741 5743 5744 5747 5749 5751 5752 5754 5755 5757 5758 5760 5761 5762 5763 5764 5765 5767 5767 5768 5769 5770 5771 5772 5773 5774 5775 5776 5776 5772 5773 5776 5773 5772 5775 5776 5776 5778 5783 5784 5775 5769 5775 5778 5779 5782 5783 5785 5782 5777 5781 5782 5784 5787
5670 5674 5677 5680 5683 5685 5688 5691 5693 5695 5697 5698 5700 5701 5703 5705 5707 5708 5710 5712 5714 5716 5718 5720 5721 5723 5725 5726 5728 5729 5731 5733 5734 5736 5738 5740 5741 5743 5746 5748 5749 5751 5752 5754 5755 5757 5758 5759 5760 5761 5762 5763 5764 5766 5767 5768 5769 5770 5770 5772 5773 5773 5775 5774 5770 5771 5772 5772 5772 5773 5774 5776 5780 5780 5772 5768 5773 5776 5777 5778 5780 5782 5779 5775 5778 5780 5781 5784
5666 5670 5673 5676 5679 5682 5685 5687 5690 5692 5694 5695 5697 5698 5700 5702 5704 5705 5707 5709 5711 5713 5715 5716 5719 5720 5721 5722 5724 5726 5729 5730 5731 5733 5735 5737 5738 5740 5742 5745 5747 5748 5749 5751 5752 5753 5754 5756 5757 5758 5759 5760 5762 5763 5764 5767 5768 5769 5768 5768 5770 5770 5771 5773 5769 5766 5769 5771 5770 5770 5772 5773 5775 5775 5772 5769 5770 5773 5775 5775 5776 5779 5778 5774 5775 5777 5778 5779
5663 5666 5670 5673 5676 5679 5681 5684 5686 5689 5691 5692 5694 5696 5697 5699 5701 5702 5704 5706 5708 5709 5711 5713 5716 5716 5717 5720 5722 5724 5726 5727 5728 5730 5732 5734 5735 5737 5739 5741 5743 5745 5746 5747 5748 5750 5751 5752 5753 5754 5755 5757 5759 5760 5762 5765 5764 5764 5767 5765 5767 5768 5769 5771 5767 5763 5766 5769 5768 5768 5769 5770 5770 5771 5771 5770 5768 5768 5771 5772 5772 5776 5776 5773 5771 5774 5775 5776
5659 5663 5666 5669 5673 5675 5678 5681 5683 5686 5688 5690 5691 5693 5695 5696 5698 5699 5701 5703 5704 5706 5707 5710 5712 5712 5714 5717 5719 5721 5723 5724 5725 5727 5729 5731 5733 5734 5736 5738 5740 5741 5743 5744 5744 5746 5747 5748 5749 5751 5752 5754 5755 5756 5759 5760 5757 5759 5763 5762 5763 5765 5767 5768 5763 5760 5763 5765 5765 5766 5766 5767 5767 5767 5768 5769 5767 5764 5767 5770 5769 5772 5775 5772 5767 5769 5773 5776
5656 5660 5663 5666 5669 5672 5675 5678 5680 5683 5685 5687 5689 5690 5692 5694 5695 5697 5698 5699 5701 5703 5704 5706 5708 5709 5711 5713 5716 5718 5719 5721 5722 5724 5726 5727 5729 5731 5732 5734 5736 5738 5739 5739 5740 5743 5744 5744 5746 5748 5749 5749 5750 5752 5754 5753 5753 5757 5759 5759 5760 5761 5764 5765 5760 5757 5760 5761 5762 5763 5763 5763 5764 5765 5765 5766 5766 5762 5762 5767 5767 5768 5771 5771 5766 5765 5769 5771
5653 5656 5660 5663 5666 5669 5672 5674 5677 5679 5681 5684 5686 5687 5689 5691 5692 5694 5695 5696 5698 5700 5701 5703 5704 5706 5707 5709 5712 5714 5716 5718 5720 5721 5723 5723 5725 5727 5729 5731 5733 5734 5735 5735 5738 5740 5741 5741 5744 5745 5744 5745 5747 5749 5750 5750 5752 5755 5755 5755 5758 5758 5761 5763 5757 5755 5758 5758 5759 5759 5760 5761 5760 5762 5763 5762 5763 5761 5760 5763 5765 5765 5767 5769 5767 5764 5765 5766
5650 5653 5657 5660 5663 5666 5668 5671 5674 5676 5678 5681 5683 5685 5687 5688 5690 5691 5692 5693 5695 5697 5698 5699 5701 5703 5704 5706 5709 5711 5713 5715 5716 5718 5719 5720 5721 5723 5726 5728 5730 5730 5731 5733 5736 5737 5738 5739 5741 5741 5741 5743 5745 5746 5747 5748 5749 5751 5752 5753 5754 5756 5759 5761 5756 5752 5753 5755 5756 5756 5757 5758 5758 5760 5761 5760 5760 5759 5758 5761 5762 5762 5764 5765 5766 5764 5763 5764
5647 5650 5654 5657 5660 5663 5665 5668 5670 5673 5675 5678 5680 5682 5684 5686 5687 5688 5689 5690 5691 5694 5695 5696 5699 5700 5701 5703 5705 5708 5710 5711 5712 5714 5716 5717 5719 5720 5723 5726 5727 5726 5728 5731 5733 5734 5736 5736 5736 5738 5739 5741 5741 5742 5744 5745 5746 5747 5748 5750 5751 5753 5756 5757 5754 5749 5748 5751 5754 5754 5754 5754 5756 5757 5758 5758 5758 5757 5757 5758 5759 5760 5761 5762 5763 5762 5761 5761
5644 5648 5651 5654 5657 5660 5662 5665 5667 5670 5672 5675 5677 5679 5681 5683 5684 5685 5687 5687 5688 5690 5692 5694 5696 5697 5699 5701 5702 5704 5707 5708 5709 5711 5714 5715 5716 5718 5720 5722 5723 5724 5726 5729 5729 5731 5733 5731 5733 5736 5736 5737 5738 5739 5741 5742 5744 5744 5745 5747 5748 5749 5750 5750 5749 5747 5747 5750 5752 5752 5751 5752 5754 5756 5757 5757 5756 5755 5754 5756 5757 5758 5759 5759 5759 5760 5759 5759
5641 5645 5648 5651 5654 5657 5659 5662 5665 5667 5669 5672 5674 5676 5678 5680 5682 5683 5684 5686 5686 5687 5689 5691 5692 5694 5696 5697 5700 5702 5704 5705 5707 5708 5711 5713 5713 5715 5717 5718 5721 5722 5724 5725 5726 5728 5730 5728 5730 5733 5732 5734 5736 5736 5738 5739 5741 5742 5743 5744 5743 5744 5745 5744 5745 5746 5746 5749 5750 5749 5749 5750 5751 5754 5756 5754 5754 5754 5752 5753 5755 5755 5756 5756 5756 5756 5757 5757
5639 5642 5645 5648 5651 5654 5657 5659 5662 5664 5666 5669 5671 5673 5675 5677 5679 5680 5682 5684 5683 5683 5686 5689 5689 5692 5693 5695 5697 5699 5700 5703 5704 5706 5709 5710 5710 5713 5714 5716 5718 5720 5720 5722 5723 5725 5727 5725 5727 5730 5730 5732 5733 5733 5735 5736 5738 5740 5740 5738 5738 5741 5742 5742 5743 5744 5744 5747 5747 5746 5747 5747 5748 5751 5753 5751 5750 5751 5751 5750 5751 5751 5751 5751 5752 5753 5753 5755
5637 5640 5642 5645 5649 5651 5654 5656 5659 5661 5663 5666 5668 5670 5672 5674 5676 5678 5680 5681 5680 5679 5683 5686 5687 5689 5691 5692 5694 5696 5697 5700 5701 5702 5705 5707 5708 5710 5712 5713 5715 5717 5717 5718 5720 5721 5722 5723 5724 5726 5728 5729 5730 5731 5732 5733 5735 5737 5735 5733 5736 5739 5739 5740 5741 5742 5743 5743 5743 5745 5745 5744 5744 5747 5750 5750 5746 5746 5749 5748 5746 5746 5747 5747 5749 5749 5750 5752
5634 5637 5640 5643 5646 5649 5651 5654 5656 5658 5661 5663 5665 5667 5670 5672 5673 5675 5677 5678 5678 5678 5681 5683 5685 5687 5688 5690 5691 5693 5695 5697 5698 5700 5702 5704 5705 5708 5709 5710 5712 5714 5713 5715 5718 5718 5717 5720 5722 5723 5725 5726 5727 5728 5729 5730 5733 5733 5731 5732 5736 5737 5736 5738 5739 5740 5741 5740 5740 5743 5743 5742 5742 5743 5746 5748 5744 5743 5745 5743 5739 5742 5744 5744 5746 5746 5747 5748
5632 5635 5638 5641 5644 5646 5649 5651 5653 5656 5658 5660 5663 5665 5667 5669 5671 5673 5674 5675 5676 5677 5678 5680 5682 5684 5686 5688 5689 5691 5692 5694 5696 5698 5700 5701 5702 5704 5706 5707 5709 5711 5710 5712 5715 5715 5714 5717 5719 5720 5722 5723 5724 5726 5726 5728 5730 5730 5730 5732 5734 5734 5735 5735 5736 5738 5738 5736 5737 5741 5742 5741 5740 5741 5743 5743 5740 5739 5740 5737 5736 5740 5740 5741 5743 5743 5743 5743
5629 5632 5635 5638 5641 5644 5646 5649 5651 5653 5655 5658 5660 5662 5665 5666 5668 5670 5671 5673 5674 5675 5676 5678 5680 5682 5684 5685 5686 5688 5690 5691 5693 5696 5697 5698 5699 5701 5703 5704 5706 5708 5707 5708 5712 5713 5712 5715 5717 5718 5719 5720 5721 5723 5724 5725 5727 5728 5729 5731 5731 5732 5732 5733 5734 5735 5734 5734 5736 5738 5739 5738 5737 5739 5739 5737 5735 5736 5736 5735 5736 5737 5737 5737 5738 5739 5740 5740
5627 5630 5633 5636 5639 5641 5644 5646 5648 5651 5653 5655 5658 5660 5662 5664 5666 5668 5669 5672 5673 5672 5673 5675 5677 5680 5682 5683 5684 5685 5688 5689 5690 5693 5694 5696 5697 5698 5700 5702 5703 5705 5706 5707 5710 5711 5711 5712 5714 5714 5716 5718 5719 5721 5721 5722 5724 5726 5727 5728 5729 5730 5730 5730 5732 5732 5731 5733 5735 5735 5735 5736 5735 5736 5734 5732 5732 5733 5734 5733 5734 5734 5734 5734 5735 5737 5739 5739
5625 5628 5631 5634 5637 5639 5642 5644 5646 5648 5650 5653 5655 5657 5659 5661 5663 5665 5667 5669 5668 5668 5671 5673 5675 5678 5680 5682 5683 5683 5686 5686 5687 5690 5691 5693 5695 5696 5697 5699 5700 5703 5705 5706 5708 5709 5709 5710 5711 5712 5714 5715 5717 5719 5719 5720 5722 5723 5724 5726 5727 5728 5728 5729 5729 5730 5730 5731 5732 5732 5732 5733 5733 5732 5729 5730 5731 5730 5730 5731 5732 5733 5732 5732 5734 5736 5737 5737
5624 5627 5630 5632 5635 5637 5640 5642 5644 5646 5648 5650 5653 5655 5657 5659 5661 5663 5665 5665 5665 5667 5669 5671 5673 5676 5678 5680 5681 5681 5683 5684 5685 5687 5689 5690 5692 5693 5695 5696 5697 5700 5703 5704 5705 5706 5707 5708 5708 5709 5711 5712 5714 5716 5717 5718 5719 5720 5722 5723 5724 5726 5726 5727 5728 5728 5728 5729 5729 5729 5729 5731 5731 5728 5725 5726 5728 5728 5728 5729 5730 5731 5730 5730 5732 5734 5734 5735
5623 5626 5628 5631 5633 5635 5638 5640 5642 5644 5646 5648 5650 5652 5655 5657 5659 5661 5661 5661 5663 5665 5667 5669 5671 5674 5675 5677 5678 5679 5681 5683 5683 5685 5687 5688 5690 5691 5693 5694 5695 5698 5700 5702 5703 5704 5705 5706 5707 5707 5708 5709 5712 5713 5714 5716 5717 5718 5719 5720 5721 5723 5723 5724 5725 5725 5726 5726 5727 5727 5727 5728 5728 5724 5721 5722 5724 5725 5725 5726 5727 5728 5728 5729 5730 5732 5733 5733
5622 5624 5627 5629 5632 5634 5636 5638 5640 5642 5644 5646 5648 5650 5652 5654 5655 5657 5658 5659 5661 5663 5665 5667 5669 5671 5673 5674 5675 5677 5679 5681 5682 5683 5685 5686 5688 5689 5691 5692 5693 5695 5697 5699 5701 5702 5703 5704 5704 5705 5706 5707 5709 5711 5712 5714 5716 5716 5717 5718 5720 5721 5722 5722 5722 5723 5724 5724 5725 5725 5726 5726 5723 5721 5721 5720 5720 5721 5722 5723 5724 5725 5726 5727 5729 5730 5731 5732
5620 5623 5625 5628 5630 5632 5634 5636 5638 5640 5642 5644 5646 5648 5649 5651 5652 5654 5656 5657 5659 5660 5663 5666 5667 5668 5671 5673 5674 5675 5677 5678 5679 5681 5683 5685 5686 5687 5689 5690 5690 5692 5694 5696 5698 5699 5701 5701 5701 5702 5705 5706 5707 5709 5710 5711 5713 5713 5715 5717 5718 5720 5720 5720 5720 5721 5722 5722 5723 5723 5724 5725 5721 5718 5718 5720 5719 5718 5719 5721 5722 5724 5725 5726 5727 5728 5729 5730
5619 5622 5624 5626 5628 5630 5632 5634 5636 5638 5640 5642 5644 5645 5647 5648 5650 5652 5653 5655 5656 5658 5661 5663 5663 5664 5668 5671 5672 5673 5674 5676 5677 5679 5681 5682 5683 5684 5686 5687 5688 5689 5691 5693 5695 5696 5697 5699 5699 5701 5703 5703 5704 5707 5708 5709 5710 5712 5713 5714 5716 5717 5718 5717 5718 5719 5720 5720 5720 5721 5721 5722 5719 5716 5717 5719 5718 5717 5718 5719 5721 5722 5723 5724 5725 5726 5727 5728
5618 5620 5622 5625 5627 5629 5631 5633 5635 5636 5638 5640 5641 5643 5644 5646 5647 5649 5651 5652 5654 5656 5658 5658 5659 5662 5665 5668 5669 5669 5671 5674 5675 5677 5678 5679 5680 5681 5682 5684 5684 5686 5688 5690 5692 5693 5695 5697 5697 5699 5700 5700 5701 5704 5705 5706 5708 5710 5711 5711 5713 5715 5715 5715 5715 5716 5717 5718 5718 5719 5719 5717 5716 5716 5716 5716 5716 5716 5717 5718 5719 5720 5721 5722 5723 5725 5726 5727
5617 5619 5621 5623 5625 5627 5629 5631 5633 5635 5636 5638 5639 5640 5642 5644 5645 5647 5648 5649 5651 5652 5654 5655 5657 5660 5662 5663 5665 5666 5669 5671 5672 5673 5675 5676 5677 5677 5679 5680 5682 5684 5685 5687 5689 5691 5692 5694 5695 5696 5697 5697 5699 5701 5703 5704 5705 5707 5708 5710 5711 5712 5712 5713 5712 5713 5715 5715 5716 5716 5715 5713 5714 5714 5713 5713 5715 5715 5715 5716 5717 5718 5719 5721 5722 5723 5725 5726
5615 5618 5620 5622 5624 5626 5628 5630 5631 5633 5634 5636 5637 5638 5640 5641 5643 5644 5646 5647 5648 5649 5651 5653 5655 5656 5658 5661 5663 5664 5665 5668 5670 5671 5673 5674 5673 5673 5675 5678 5680 5681 5683 5685 5686 5688 5689 5691 5693 5694 5694 5695 5697 5699 5700 5701 5702 5704 5706 5707 5709 5710 5711 5711 5710 5711 5713 5713 5714 5714 5712 5711 5712 5713 5712 5712 5713 5714 5714 5715 5716 5717 5718 5719 5721 5722 5724 5724
5614 5617 5619 5621 5622 5624 5626 5628 5630 5631 5632 5634 5635 5636 5638 5639 5640 5642 5643 5645 5646 5647 5649 5650 5652 5653 5655 5658 5660 5661 5663 5665 5667 5668 5670 5670 5670 5670 5673 5675 5677 5679 5681 5683 5683 5684 5686 5687 5690 5691 5691 5694 5695 5695 5696 5698 5700 5701 5703 5705 5706 5707 5708 5708 5707 5709 5710 5710 5710 5710 5709 5709 5710 5711 5711 5711 5711 5712 5713 5714 5714 5715 5716 5718 5719 5721 5722 5723
5613 5616 5618 5619 5621 5623 5625 5627 5629 5630 5631 5632 5633 5634 5636 5637 5638 5640 5641 5642 5643 5645 5646 5648 5649 5651 5652 5655 5657 5659 5661 5663 5664 5666 5667 5667 5667 5668 5670 5672 5674 5676 5678 5678 5679 5681 5684 5685 5687 5689 5689 5690 5691 5691 5694 5696 5697 5699 5701 5702 5703 5703 5704 5704 5704 5705 5705 5706 5708 5708 5707 5706 5708 5709 5709 5710 5710 5710 5711 5712 5713 5714 5714 5716 5717 5719 5720 5721
5613 5615 5616 5618 5620 5622 5624 5626 5628 5629 5629 5630 5631 5633 5633 5635 5636 5637 5639 5640 5641 5642 5644 5645 5647 5648 5650 5652 5654 5656 5658 5660 5661 5663 5664 5664 5664 5665 5667 5669 5671 5672 5673 5674 5676 5680 5682 5683 5684 5686 5686 5687 5688 5689 5691 5692 5694 5696 5697 5698 5698 5699 5701 5701 5701 5702 5703 5704 5706 5707 5704 5703 5705 5707 5707 5708 5709 5709 5709 5710 5711 5712 5713 5714 5715 5717 5718 5719
5613 5614 5615 5617 5619 5620 5622 5624 5625 5627 5628 5629 5630 5631 5632 5633 5634 5635 5637 5638 5639 5640 5642 5643 5644 5646 5647 5649 5651 5653 5655 5657 5659 5660 5661 5661 5662 5662 5664 5666 5667 5669 5671 5673 5675 5677 5679 5680 5682 5683 5684 5684 5685 5686 5687 5688 5690 5692 5693 5693 5694 5696 5697 5697 5699 5700 5701 5702 5703 5702 5700 5700 5702 5704 5705 5706 5707 5708 5708 5709 5709 5710 5711 5712 5713 5714 5715 5717
5611 5613 5614 5616 5617 5619 5621 5622 5623 5625 5626 5627 5628 5629 5630 5631 5632 5634 5635 5636 5637 5638 5640 5641 5642 5643 5645 5647 5648 5650 5653 5654 5656 5657 5658 5659 5659 5659 5661 5663 5665 5667 5669 5670 5672 5674 5676 5677 5679 5680 5681 5682 5682 5683 5684 5685 5687 5689 5689 5689 5691 5693 5694 5694 5696 5697 5697 5698 5699 5698 5697 5699 5701 5702 5703 5705 5706 5706 5707 5707 5708 5709 5709 5710 5711 5712 5713 5714
5610 5612 5613 5615 5616 5618 5620 5621 5622 5623 5624 5625 5627 5628 5629 5630 5631 5632 5633 5634 5635 5637 5638 5639 5640 5641 5643 5644 5646 5648 5650 5651 5653 5654 5656 5656 5656 5657 5659 5660 5662 5664 5666 5667 5669 5671 5673 5674 5675 5677 5678 5678 5679 5680 5682 5684 5685 5686 5686 5686 5687 5689 5690 5691 5692 5693 5693 5695 5696 5695 5696 5698 5700 5701 5702 5703 5704 5705 5706 5706 5707 5707 5708 5708 5709 5709 5710 5711
5609 5611 5612 5614 5615 5617 5618 5620 5621 5622 5623 5624 5626 5627 5628 5629 5630 5631 5632 5632 5633 5634 5636 5637 5638 5639 5640 5642 5643 5645 5647 5648 5649 5651 5653 5653 5653 5655 5657 5657 5659 5661 5662 5664 5666 5668 5670 5671 5672 5674 5675 5675 5676 5677 5679 5681 5682 5682 5683 5683 5683 5685 5687 5688 5689 5689 5690 5691 5692 5692 5693 5695 5697 5699 5700 5701 5702 5703 5704 5705 5705 5706 5706 5707 5707 5707 5708 5709
5608 5610 5611 5613 5614 5616 5617 5619 5620 5621 5622 5624 5625 5626 5627 5627 5628 5629 5630 5630 5631 5632 5633 5635 5636 5637 5638 5639 5641 5642 5643 5644 5646 5647 5649 5650 5651 5653 5653 5654 5656 5658 5659 5661 5663 5665 5667 5668 5669 5670 5672 5673 5673 5674 5676 5677 5677 5678 5680 5681 5682 5683 5684 5685 5686 5687 5687 5687 5688 5689 5691 5693 5695 5697 5698 5698 5699 5701 5702 5702 5703 5704 5705 5705 5705 5706 5706 5706
5607 5608 5610 5612 5614 5615 5616 5618 5619 5620 5621 5622 5624 5625 5625 5626 5627 5628 5628 5629 5629 5630 5631 5632 5634 5635 5636 5637 5638 5639 5640 5641 5642 5644 5646 5647 5648 5650 5650 5651 5653 5655 5657 5658 5660 5662 5663 5664 5665 5667 5668 5669 5670 5671 5672 5673 5674 5675 5677 5678 5679 5680 5681 5682 5684 5685 5684 5684 5685 5687 5688 5690 5692 5694 5695 5696 5697 5698 5699 5700 5701 5702 5702 5703 5703 5704 5704 5704
5606 5607 5609 5611 5613 5614 5615 5617 5619 5620 5620 5621 5623 5623 5624 5625 5626 5626 5627 5627 5628 5629 5630 5631 5632 5633 5633 5634 5635 5636 5637 5638 5639 5641 5642 5644 5645 5647 5647 5648 5650 5652 5654 5655 5656 5659 5660 5661 5663 5664 5665 5666 5668 5668 5669 5670 5672 5673 5674 5674 5675 5676 5678 5680 5681 5682 5682 5682 5683 5684 5685 5687 5689 5691 5692 5694 5695 5696 5697 5698 5698 5699 5700 5701 5701 5702 5702 5702
5605 5607 5609 5610 5612 5613 5615 5616 5618 5619 5620 5620 5621 5622 5623 5624 5624 5625 5625 5626 5626 5627 5628 5629 5629 5630 5631 5631 5632 5633 5634 5635 5636 5637 5639 5641 5642 5644 5645 5646 5648 5649 5650 5651 5653 5656 5658 5659 5660 5661 5662 5663 5665 5666 5666 5668 5669 5669 5670 5672 5672 5673 5674 5676 5677 5679 5679 5679 5680 5681 5682 5684 5686 5688 5690 5691 5692 5693 5694 5695 5696 5697 5698 5698 5699 5699 5700 5700